CZ-6A DEB

Satellite information

Favourite Embed

Satellite Type and Status

DEBRISIN ORBIT

Key statistics

Satellite CZ-6A DEB at a glance.

Uptime

1129

Days in orbit

Revolutions

≈ 14.3

Per day

Orbit

SSO

Sun Synchronous Orbit

Inclination

98.9

Latest

Satellite identification and parameters

Extended collection of information and parameters for CZ-6A DEB.

Object identification

Identified? True

Debris? True

Object name: CZ-6A DEB

International designator: 2022-151BF

Object number (NORAD): 54312

Object ID (CCSDS): 54312

Country: PEOPLES REPUBLIC OF CHINA (PRC)

Current information (Y/N): Y

RCS size: SMALL

Orbital parameters

Period: 100.729 minutes

Inclination: 98.8951 deg

SMA: 7171.265 km

Apoapsis: 808.563 km

Periapsis: 777.697 km

RAAN: 25.0487 deg

Eccentricy: 0.0021521

Argument of periapsis: 330.7446 deg

Mean anomaly: 29.2529 deg

Mean motion: 14.29582049 rev/day

Mean motion (dot): 0.00004479 rev/day2

B* drag term: 0.0017633 1/REarth

Two-line elements (TLE)

Creation date: Dec. 9, 2025, 11:56 p.m.

Reference frame: TEME

Reference center: EARTH

Epoch: Dec. 9, 2025, 2:17 p.m. UTC

TLE line 0: 0 CZ-6A DEB

TLE line 1: 1 54312U 22151BF 25343.59564115 .00004479 00000-0 17633-2 0 9995

TLE line 2: 2 54312 98.8951 25.0487 0021521 330.7446 29.2529 14.29582049159414

Live tracking on map

Real-time ground track for satellite CZ-6A DEB.

In-orbit conjunctions

A list of the most updated potential collisions computed for object CZ-6A DEB.

Target Orbit TCA Probability of collision Miss distance Type
COSMOS 1331 LEO 2025-10-30 23:48:13 0.0001075955 750.0 (m) PAYLOAD
METEOR 1-5 DEB LEO 2025-09-26 18:14:30 0.0003161236 99.0 (m) DEBRIS

Associated space launch

Chinese satellite reported for atmospheric/ocean/environmental/spatial parameter research purposes, details TBD.

CZ-6A DEB was lifted into orbit during the mission ‘Long March 6A | Yunhai 3’, on board a Long March 6A space rocket.

The launch took place on Nov. 11, 2022, 10:52 p.m. from Launch Complex 9A.

For more information about the launch, click the button.

Launch to space Long March 6A | Yunhai 3
Long March 6A | Yunhai 3

Agency: N/A

Status: Launch Successful

Launch date: Nov. 11, 2022, 10:52 p.m. UTC

Rocket: Long March 6A

Launch pad: Launch Complex 9A

Location: Taiyuan Satellite Launch Center, People's Republic of China

...

Latest news about this satellite

There are no fresh news available about this satellite. Check back as we update our databases every day.


Newsletter sign-up

Weekly statistics, charts and insights to help you stay on top of the space industry.